Time,TemperatureF,DewpointF,PressureIn,WindDirection,WindDirectionDegrees,WindSpeedMPH,WindSpeedGustMPH,Humidity,HourlyPrecipIn,Conditions,Clouds,dailyrainin,SoftwareType,DateUTC
2013-05-29 09:28:00,52.0,52.0,29.83,ENE,67,2.0,0.0,100,0.00,,,0.00,Rainwise IP-100,2013-05-29 13:28:00,
2013-05-29 09:30:00,52.0,52.0,29.83,ENE,67,4.0,5.0,100,0.00,,,0.00,Rainwise IP-100,2013-05-29 13:30:00,
2013-05-29 09:57:00,52.0,52.0,29.83,ENE,67,4.0,5.0,100,0.00,,,0.00,Rainwise IP-100,2013-05-29 13:57:00,
2013-05-29 11:09:00,52.0,52.0,29.83,NE,45,2.0,5.0,100,0.00,,,0.04,Rainwise IP-100,2013-05-29 15:09:00,
2013-05-29 11:14:00,52.0,52.0,29.81,NE,45,1.0,4.0,100,0.24,,,0.04,Rainwise IP-100,2013-05-29 15:14:00,
2013-05-29 11:19:00,52.0,52.0,29.81,NE,45,1.0,4.0,100,0.24,,,0.04,Rainwise IP-100,2013-05-29 15:19:00,
2013-05-29 11:24:00,52.0,52.0,29.81,East,90,4.0,4.0,100,0.00,,,0.04,Rainwise IP-100,2013-05-29 15:24:00,
2013-05-29 11:29:00,53.0,53.0,29.81,ESE,112,1.0,4.0,100,0.00,,,0.05,Rainwise IP-100,2013-05-29 15:29:00,
2013-05-29 11:34:00,53.0,53.0,29.81,ESE,112,1.0,4.0,100,0.06,,,0.05,Rainwise IP-100,2013-05-29 15:34:00,
2013-05-29 11:39:00,53.0,53.0,29.81,ESE,112,4.0,5.0,100,0.06,,,0.05,Rainwise IP-100,2013-05-29 15:39:00,
2013-05-29 11:44:00,53.0,53.0,29.81,ENE,67,3.0,5.0,100,0.00,,,0.06,Rainwise IP-100,2013-05-29 15:44:00,
2013-05-29 11:54:00,53.0,53.0,29.81,East,90,4.0,5.0,100,0.06,,,0.07,Rainwise IP-100,2013-05-29 15:54:00,
2013-05-29 11:59:00,53.0,53.0,29.81,ENE,67,4.0,9.0,100,0.06,,,0.07,Rainwise IP-100,2013-05-29 15:59:00,
2013-05-29 12:04:00,54.0,54.0,29.80,ENE,67,5.0,9.0,100,0.06,,,0.07,Rainwise IP-100,2013-05-29 16:04:00,
2013-05-29 12:10:00,54.0,54.0,29.80,ENE,67,5.0,9.0,100,0.00,,,0.07,Rainwise IP-100,2013-05-29 16:10:00,
2013-05-29 12:29:00,54.0,54.0,29.80,SSE,157,6.0,10.0,100,0.06,,,0.08,Rainwise IP-100,2013-05-29 16:29:00,
2013-05-29 12:48:00,54.0,54.0,29.79,SSE,157,4.0,10.0,100,0.00,,,0.12,Rainwise IP-100,2013-05-29 16:48:00,
2013-05-29 12:53:00,54.0,54.0,29.79,SSE,157,4.0,10.0,100,0.24,,,0.12,Rainwise IP-100,2013-05-29 16:53:00,
2013-05-29 12:58:00,54.0,54.0,29.79,SSE,157,4.0,6.0,100,0.24,,,0.12,Rainwise IP-100,2013-05-29 16:58:00,
2013-05-29 13:18:00,54.0,54.0,29.79,ESE,112,7.0,0.0,100,0.00,,,0.13,Rainwise IP-100,2013-05-29 17:18:00,
2013-05-29 16:53:00,53.0,53.0,29.73,SSE,157,8.0,9.0,100,0.00,,,0.38,Rainwise IP-100,2013-05-29 20:53:00,
2013-05-29 17:04:00,53.0,53.0,29.73,SE,135,4.0,13.0,100,0.00,,,0.40,Rainwise IP-100,2013-05-29 21:04:00,
2013-05-29 17:11:00,53.0,53.0,29.72,SSE,157,2.0,10.0,100,0.12,,,0.41,Rainwise IP-100,2013-05-29 21:11:00,
2013-05-29 20:28:00,51.0,51.0,29.65,SSE,157,4.0,0.0,100,0.00,,,0.45,Rainwise IP-100,2013-05-30 00:28:00,
2013-05-29 20:33:00,51.0,51.0,29.65,ESE,112,2.0,6.0,100,0.24,,,0.45,Rainwise IP-100,2013-05-30 00:33:00,
2013-05-29 20:38:00,51.0,51.0,29.65,SE,135,5.0,8.0,100,0.24,,,0.45,Rainwise IP-100,2013-05-30 00:38:00,
2013-05-29 20:43:00,51.0,51.0,29.65,ESE,112,4.0,7.0,100,0.00,,,0.45,Rainwise IP-100,2013-05-30 00:43:00,
2013-05-29 20:48:00,51.0,51.0,29.65,East,90,6.0,8.0,100,0.00,,,0.45,Rainwise IP-100,2013-05-30 00:48:00,
2013-05-29 20:53:00,51.0,51.0,29.67,SE,135,3.0,6.0,100,0.00,,,0.45,Rainwise IP-100,2013-05-30 00:53:00,
2013-05-29 20:58:00,51.0,51.0,29.67,ESE,112,4.0,4.0,100,0.00,,,0.45,Rainwise IP-100,2013-05-30 00:58:00,
2013-05-29 21:16:00,51.0,51.0,29.67,East,90,4.0,0.0,100,0.00,,,0.46,Rainwise IP-100,2013-05-30 01:16:00,
2013-05-29 21:21:00,51.0,51.0,29.67,ENE,67,2.0,4.0,100,0.06,,,0.46,Rainwise IP-100,2013-05-30 01:21:00,